[Iaude] MPEC H34: 2024 HP [a=1.92,e=0.47,i=6.5,H=21.0,PHA]

mpec at cfa.harvard.edu mpec at cfa.harvard.edu
Fri Apr 19 07:50:43 EDT 2024


M.P.E.C. 2024-H34                                Issued 2024 April 19, 11:48 UT

     The Minor Planet Electronic Circulars contain information on unusual
         minor planets, routine data on comets and natural satellites,
         and occasional editorial announcements.  They are published
    on behalf of Division F of the International Astronomical Union by the
          Minor Planet Center, Smithsonian Astrophysical Observatory,
                          Cambridge, MA 02138, U.S.A.
			  
             Prepared using the Tamkin Foundation Computer Network

                              MPC at CFA.HARVARD.EDU
            URL https://www.minorplanetcenter.net/    ISSN 1523-6714

                                    2024 HP                                     


Observations:
     K24H00P*1C2024 04 17.24576312 07 30.101-17 30 52.49         18.26GVEH034G96
     K24H00P 1C2024 04 17.25097712 07 29.950-17 30 46.76         18.40GVEH034G96
     K24H00P 1C2024 04 17.25724512 07 29.755-17 30 39.82         18.96GVEH034G96
     K24H00P 1C2024 04 17.26251312 07 29.593-17 30 33.91         18.32GVEH034G96
     K24H00P KC2024 04 17.35066712 07 27.048-17 28 53.90         18.48GVEH034I52
     K24H00P KC2024 04 17.35734012 07 26.872-17 28 46.13         18.27GVEH034I52
     K24H00P KC2024 04 17.36350112 07 26.713-17 28 39.22         18.95GVEH034I52
     K24H00P KC2024 04 17.77482 12 07 26.25 -17 20 13.4          18.1 GVEH034L29
     K24H00P KC2024 04 17.78355 12 07 26.03 -17 20 04.1          18.4 GVEH034L29
     K24H00P KC2024 04 17.79224 12 07 25.79 -17 19 54.2          18.0 GVEH034L29
     K24H00P 0B2024 04 17.81133 12 07 25.334-17 19 33.17         18.5 VZEH034M49
     K24H00P 0B2024 04 17.81525 12 07 25.226-17 19 28.78         18.6 VZEH034M49
     K24H00P 0B2024 04 17.81881 12 07 25.123-17 19 24.89         18.5 VZEH034M49
     K24H00P KB2024 04 17.87111412 07 24.27 -17 19 14.6          18.6 GXEH034958
     K24H00P KB2024 04 17.87736912 07 24.08 -17 19 08.1          18.5 GXEH034958
     K24H00P KB2024 04 17.88357512 07 23.88 -17 19 00.7          17.9 GXEH034958
     K24H00P KC2024 04 17.89406612 07 23.60 -17 18 49.8          18.6 GXEH034I93
     K24H00P KC2024 04 17.89763312 07 23.52 -17 18 44.9          18.5 GXEH034I93
     K24H00P KC2024 04 17.90098512 07 23.41 -17 18 41.3          18.9 GXEH034I93
     K24H00P hC2024 04 17.91347012 07 23.110-17 18 29.02         18.6 GVEH034J95
     K24H00P KC2024 04 17.92458512 07 22.831-17 18 16.99         17.9 GVEH034J95
     K24H00P KC2024 04 18.10320312 07 22.14 -17 14 44.2          18.0 GVEH034H21
     K24H00P KC2024 04 18.10604712 07 22.07 -17 14 41.0          18.4 GVEH034H21
     K24H00P KC2024 04 18.10889512 07 22.01 -17 14 37.7          18.6 GVEH034H21
     K24H00P KC2024 04 18.11173612 07 21.91 -17 14 35.1          19.5 GVEH034H21
     K24H00P KB2024 04 18.11533 12 07 21.61 -17 14 24.0          18.2 GXEH034W42
     K24H00P KB2024 04 18.11977 12 07 21.43 -17 14 17.6          17.9 GXEH034W42
     K24H00P KB2024 04 18.12448 12 07 21.31 -17 14 12.0          17.9 GXEH034W42
     K24H00P  C2024 04 18.13378 12 07 22.24 -17 14 06.3          18.6 VtEH034V27
     K24H00P  C2024 04 18.14311 12 07 21.97 -17 13 55.8          19.7 VtEH034V27
     K24H00P  C2024 04 18.14573 12 07 21.96 -17 13 52.8          18.8 VtEH034V27
     K24H00P  C2024 04 18.14877112 07 20.088-17 12 57.60         17.85oVEH034W68
     K24H00P  C2024 04 18.15176 12 07 21.75 -17 13 45.3          19.1 VtEH034V27
     K24H00P  C2024 04 18.15197712 07 19.918-17 12 53.86         18.25oVEH034W68
     K24H00P KC2024 04 18.15404912 07 21.74 -17 13 42.4          18.6 GXEH034858
     K24H00P KC2024 04 18.16081612 07 21.56 -17 13 35.0          19.1 GXEH034858
     K24H00P KC2024 04 18.16789912 07 21.37 -17 13 26.8          18.9 GXEH034858
     K24H00P  C2024 04 18.17073 12 07 21.23 -17 13 24.0          18.7 VtEH034V27
     K24H00P  C2024 04 18.17075312 07 19.512-17 12 31.68         18.30oVEH034W68
     K24H00P KC2024 04 18.22802 12 07 20.590-17 12 20.41         18.9 GVEH034U52
     K24H00P KC2024 04 18.23237 12 07 20.350-17 12 14.26         17.3 GVEH034U52
     K24H00P KC2024 04 18.43868 12 07 19.22 -17 07 10.6          18.6 VqEH034E23
     K24H00P KC2024 04 18.45060 12 07 18.93 -17 06 56.8          18.2 VqEH034E23
     K24H00P KC2024 04 18.46102 12 07 18.65 -17 06 44.4          18.6 VqEH034E23
     K24H00P KB2024 04 18.54913 12 07 18.89 -17 05 48.7          19.0 GVEH034O46
     K24H00P KB2024 04 18.57243 12 07 18.33 -17 05 22.1          19.4 GVEH034O46
     K24H00P KB2024 04 18.59808 12 07 17.67 -17 04 51.7          18.2 GVEH034O46
     K24H00P KC2024 04 18.80945112 07 16.18 -17 00 46.1          17.0 RVEH034K61
     K24H00P KC2024 04 18.81064112 07 16.13 -17 00 44.8          17.4 RVEH034K61
     K24H00P  C2024 04 18.87586612 07 14.443-16 58 23.27         18.36oVEH034M22
     K24H00P  C2024 04 18.87912912 07 14.378-16 58 19.20         18.23oVEH034M22
     K24H00P  C2024 04 18.88465312 07 14.203-16 58 12.61         18.64oVEH034M22
     K24H00P  C2024 04 18.89466212 07 13.968-16 57 59.94         17.86oVEH034M22

Observer details:
858 Tebbutt Observatory, Edgewood.  Observer F. B. Zoltowski.  0.51-m f/8.1
    Schmidt-Cassegrain + CCD.
958 Observatoire de Dax.  Observer P. Dupouy.  0.50-m f/4.5 Reflector + CMO.
E23 Arcadia.  Observer A. Hidas.  0.35-m f/1.9 reflector + CCD.
G96 Mt. Lemmon Survey.  Observer G. J. Leonard.  Measurers T. Beuden, V. F.
    Carvajal, D. Fay, J. B. Fazekas, D. C. Fuls, A. R. Gibbs, A. D. Grauer, H.
    Groeller, J. K. Hogan, R. A. Kowalski, S. M. Larson, G. J. Leonard, D.
    Rankin, R. L. Seaman, F. C. Shelly, K. W. Wierzchos.  1.5-m reflector +
    10K CCD.
H21 Astronomical Research Observatory, Westfield.  Observer R. Holmes.
    Measurers T. Linder, R. Holmes, L. Horn.  0.81-m f/4.0 astrograph + CCD.
I52 Steward Observatory, Mt. Lemmon Station.  Observer J. B. Fazekas.
    Measurers T. Beuden, V. F. Carvajal, D. Fay, J. B. Fazekas, D. C. Fuls, A.
    R. Gibbs, A. D. Grauer, H. Groeller, J. K. Hogan, R. A. Kowalski, S. M.
    Larson, G. J. Leonard, D. Rankin, R. L. Seaman, F. C. Shelly, K. W.
    Wierzchos.  1.0-m prime focus + CCD.
I93 St Pardon de Conques.  Observer F. Losse.  0.40-m f/3.7 reflector + CCD.
J95 Great Shefford.  Observer P. Birtwhistle.  0.41-m f/6.3 Schmidt-Cassegrain
    + CCD.
K61 Rokycany Observatory.  Observer M. Adamovsky.  0.51-m f/6.8 reflector +
    CCD.
L29 Drebach-South Observatory, Windhoek.  Observer G. Lehmann.  0.4-m f/3.6
    reflector + CCD.
M22 ATLAS South Africa, Sutherland.  Observers L. Denneau, R. Siverd, J.
    Tonry, H. Weiland.  Measurers L. Denneau, N. Erasmus, A. Fitzsimmons, J.
    Robinson, R. Siverd, J. Tonry, H. Weiland.  0.5-m Reflector + CCD.
M49 IAS Remote Observatory, Hakos.  Observers D. Husar, M. Junius.  Measurer
    D. Husar.  0.25-m f/4.5 reflector + CMO.
O46 Daocheng Glacier Observatory.  Observer Z. Wang.  0.25-m f/8 reflector +
    CMO.
U52 Shasta Valley Observatory, Grenada.  Observers J. E. Rogers, B. Haeusler.
    Measurers J. E. Rogers, D. Parrott.  0.30-m f/5.2 Helin Telescope + CCD.
V27 North Mesa Observatory, Los Alamos.  Observer B. K. Kendrick.  0.25-m f/6
    reflector + CCD.
W42 Mind's Eye Observatory, Vero Beach.  Observer J. T. Grage.  0.30-m f/3.3
    SCT + CMO.
W68 ATLAS Chile, Rio Hurtado.  Observers L. Denneau, R. Siverd, J. Tonry, H.
    Weiland.  Measurers L. Denneau, N. Erasmus, A. Fitzsimmons, J. Robinson,
    R. Siverd, J. Tonry, H. Weiland.  0.5-m Reflector + CCD.

Orbital elements:
2024 HP                                             PHA, Earth MOID = 0.0357 AU
Epoch 2024 Mar. 31.0 TT = JDT 2460400.5                 Veres                   
M 334.93385              (2000.0)            P               Q                  
n   0.37111603     Peri.   32.73290     -0.21218216     +0.97393640             
a   1.9177688      Node   225.16093     -0.91915182     -0.22675831             
e   0.4697736      Incl.    6.49145     -0.33187145     +0.00534360             
P   2.66           H   21.09          G   0.15           U   8                  
Residuals in seconds of arc
240417 G96  0.1-  0.1+    240417 I93  0.0   0.2+    240418 858  0.1-  0.1-
240417 G96  0.1+  0.0     240417 J95  0.2+  0.8+    240418 V27  0.9-  0.1-
240417 G96  0.0   0.0     240417 J95  0.0   0.1+    240418 W68  0.6+  0.1-
240417 G96  0.0   0.1+    240418 H21  0.1-  0.1-    240418 U52  1.4+  0.6-
240417 I52  0.1-  0.0     240418 H21  0.1-  0.1-    240418 U52  0.5-  0.5+
240417 I52  0.1-  0.0     240418 H21  0.1+  0.0     240418 E23  0.3-  0.4+
240417 I52  0.1-  0.2-    240418 H21 (0.3-  0.6-)   240418 E23  0.1-  0.3+
240417 L29  0.0   0.3-    240418 W42  0.2+  0.2+    240418 E23  0.2-  0.6+
240417 L29  0.2+  0.5-    240418 W42  0.6-  1.5+    240418 O46  0.3-  0.4+
240417 L29  0.2+  0.1-    240418 W42  0.3-  1.7+    240418 O46  0.0   0.1+
240417 M49  0.1+  0.0     240418 V27  0.0   0.5-    240418 O46  0.1+  0.5+
240417 M49  0.2+  0.0     240418 V27  0.5-  0.6-    240418 K61  0.2+  0.7-
240417 M49  0.2+  0.0     240418 V27  0.3+  0.5-    240418 K61  0.2-  0.8-
240417 958  0.7+  0.2+    240418 W68  0.1-  0.1+    240418 M22  0.0   0.4+
240417 958  0.2+  0.4-    240418 V27  0.5-  0.2+    240418 M22  0.3+  0.4+
240417 958  0.4-  0.1+    240418 W68  1.2-  0.0     240418 M22  0.1-  0.2+
240417 I93  0.1+  0.4-    240418 858  0.0   0.1+    240418 M22  0.3+  0.4+
240417 I93  0.3+  0.4+    240418 858  0.0   0.3-

Ephemeris:
2024 HP                  a,e,i = 1.92, 0.47, 6                   q = 1.0169
Date    TT    R. A. (2000) Decl.     Delta      r    Elong.  Phase     V
2024 03 20    12 18 51.9 -20 11 41   0.3564  1.3347   159.0    15.5    20.3
...
2024 04 04    12 12 45.6 -20 01 09   0.2507  1.2417   162.6    13.9    19.4
...
2024 04 12    12 09 06.5 -18 50 31   0.2037  1.1954   159.5    17.0    18.9
...
2024 04 18    12 07 21.9 -17 16 03   0.1720  1.1628   155.6    20.9    18.6
2024 04 19    12 07 13.7 -16 56 05   0.1669  1.1576   154.9    21.6    18.6
2024 04 20    12 07 08.8 -16 34 44   0.1619  1.1525   154.1    22.4    18.5
...
2024 04 26    12 08 07.8 -13 52 16   0.1333  1.1230   149.3    27.2    18.2
...
2024 05 04    12 15 29.8 -07 58 47   0.09828 1.0881   142.7    34.2    17.7
...
2024 05 19    13 27 29.7 +23 19 02   0.04661 1.0395   125.6    52.3    16.4

M. P. C. Staff               (C) Copyright 2024 MPC           M.P.E.C. 2024-H34





More information about the Iaude mailing list